,,Stat6,,Stat2,,Stat8,,Stat9,,Stat10,,Wind1,,Wind1,
time,status,PA1M_AVG,status,PR1M_SUM,status,RH1M_AVG,status,SR1M_AVG,status,TA1M_AVG,status,W1dAve1m,status,W1sAve1m,
2004-11-18, 00:00:00,VALID,917.778,VALID,0,VALID,100,VALID,0,VALID,20.5467,VALID,146,VALID,0.803544,
2004-11-18, 00:01:00,VALID,917.799,VALID,0,VALID,100,VALID,0,VALID,20.5429,VALID,130,VALID,0.759448,
2004-11-18, 00:02:00,VALID,917.822,VALID,0,VALID,100,VALID,0,VALID,20.5497,VALID,117,VALID,1.3058,
2004-11-18, 00:03:00,VALID,917.819,VALID,0,VALID,100,VALID,-0.0169808,VALID,20.54,VALID,116,VALID,1.50645,
2004-11-18, 00:04:00,VALID,917.826,VALID,0,VALID,100,VALID,0.0169808,VALID,20.5626,VALID,119,VALID,1.39566,
2004-11-18, 00:05:00,VALID,917.807,VALID,0,VALID,100,VALID,0,VALID,20.5755,VALID,131,VALID,0.97093,
2004-11-18, 00:06:00,VALID,917.789,VALID,0,VALID,100,VALID,0.0169808,VALID,20.5917,VALID,123,VALID,1.42987,
2004-11-18, 00:07:00,VALID,917.772,VALID,0,VALID,100,VALID,0,VALID,20.5876,VALID,128,VALID,1.31922,
2004-11-18, 00:08:00,VALID,917.765,VALID,0,VALID,100,VALID,0,VALID,20.582,VALID,125,VALID,1.64316,
2004-11-18, 00:09:00,VALID,917.749,VALID,0,VALID,100,VALID,0,VALID,20.5986,VALID,129,VALID,1.78143,
2004-11-18, 00:10:00,VALID,917.746,VALID,0,VALID,100,VALID,0,VALID,20.5919,VALID,131,VALID,1.96723,
2004-11-18, 00:11:00,VALID,917.739,VALID,0,VALID,99.7205,VALID,0.0169808,VALID,20.611,VALID,135,VALID,1.83498,
2004-11-18, 00:12:00,VALID,917.719,VALID,0,VALID,99.2729,VALID,0.0169808,VALID,20.6463,VALID,128,VALID,1.36033,
2004-11-18, 00:13:00,VALID,917.72,VALID,0,VALID,98.8863,VALID,0.0339617,VALID,20.6791,VALID,111,VALID,1.35138,
2004-11-18, 00:14:00,VALID,917.715,VALID,0,VALID,98.5303,VALID,0.0169808,VALID,20.6851,VALID,125,VALID,1.65404,
2004-11-18, 00:15:00,VALID,917.701,VALID,0,VALID,98.1412,VALID,0.0339617,VALID,20.7144,VALID,116,VALID,2.03374,
2004-11-18, 00:16:00,VALID,917.703,VALID,0,VALID,97.9581,VALID,0.0169808,VALID,20.7303,VALID,122,VALID,1.73765,
2004-11-18, 00:17:00,VALID,917.711,VALID,0,VALID,97.9415,VALID,-0.0679233,VALID,20.7348,VALID,112,VALID,1.03311,
2004-11-18, 00:18:00,VALID,917.716,VALID,0,VALID,97.9059,VALID,-0.0339617,VALID,20.7273,VALID,115,VALID,1.51726,
2004-11-18, 00:19:00,VALID,917.712,VALID,0,VALID,97.9008,VALID,-0.0679233,VALID,20.712,VALID,118,VALID,1.51108,
2004-11-18, 00:20:00,VALID,917.703,VALID,0,VALID,97.8322,VALID,0,VALID,20.705,VALID,118,VALID,1.63601,
2004-11-18, 00:21:00,VALID,917.684,VALID,0,VALID,97.8271,VALID,-0.0339617,VALID,20.7058,VALID,103,VALID,1.31995,
2004-11-18, 00:22:00,VALID,917.68,VALID,0,VALID,97.8334,VALID,-0.0339617,VALID,20.699,VALID,111,VALID,1.2792,
2004-11-18, 00:23:00,VALID,917.664,VALID,0,VALID,97.761,VALID,-0.0339617,VALID,20.6859,VALID,106,VALID,1.49707,
2004-11-18, 00:24:00,VALID,917.652,VALID,0.2,VALID,97.7432,VALID,-0.0169808,VALID,20.6861,VALID,112,VALID,1.35229,
2004-11-18, 00:25:00,VALID,917.663,VALID,0,VALID,97.7737,VALID,-0.0509425,VALID,20.6864,VALID,99,VALID,1.35547,
2004-11-18, 00:26:00,VALID,917.662,VALID,0,VALID,97.8436,VALID,0,VALID,20.6667,VALID,114,VALID,1.33891,
2004-11-18, 00:27:00,VALID,917.655,VALID,0,VALID,97.9822,VALID,0,VALID,20.6503,VALID,133,VALID,1.06827,
2004-11-18, 00:28:00,VALID,917.65,VALID,0,VALID,98.0865,VALID,-0.0339617,VALID,20.6344,VALID,99,VALID,1.14291,
2004-11-18, 00:29:00,VALID,917.632,VALID,0,VALID,98.192,VALID,-0.0679233,VALID,20.618,VALID,79,VALID,0.915278,
2004-11-18, 00:30:00,VALID,917.633,VALID,0,VALID,98.2989,VALID,-0.0509425,VALID,20.5951,VALID,79,VALID,1.15554,
2004-11-18, 00:31:00,VALID,917.642,VALID,0,VALID,98.281,VALID,-0.0509425,VALID,20.5862,VALID,80,VALID,1.2474,
2004-11-18, 00:32:00,VALID,917.632,VALID,0,VALID,98.1539,VALID,-0.0679233,VALID,20.5892,VALID,104,VALID,1.08775,
2004-11-18, 00:33:00,VALID,917.628,VALID,0,VALID,98.2251,VALID,-0.0509425,VALID,20.5862,VALID,86,VALID,1.20255,
2004-11-18, 00:34:00,VALID,917.609,VALID,0,VALID,98.2162,VALID,-0.0169808,VALID,20.583,VALID,90,VALID,1.20135,
2004-11-18, 00:35:00,VALID,917.591,VALID,0,VALID,98.2098,VALID,-0.0509425,VALID,20.5792,VALID,111,VALID,1.12393,
2004-11-18, 00:36:00,VALID,917.594,VALID,0,VALID,98.262,VALID,-0.0679233,VALID,20.5991,VALID,102,VALID,1.3617,
2004-11-18, 00:37:00,VALID,917.59,VALID,0,VALID,98.4286,VALID,-0.0169808,VALID,20.6021,VALID,94,VALID,1.13924,
2004-11-18, 00:38:00,VALID,917.594,VALID,0,VALID,98.4883,VALID,-0.0339617,VALID,20.5924,VALID,103,VALID,1.11477,
2004-11-18, 00:39:00,VALID,917.586,VALID,0,VALID,98.5494,VALID,0,VALID,20.5825,VALID,102,VALID,1.26476,
2004-11-18, 00:40:00,VALID,917.602,VALID,0,VALID,98.6841,VALID,-0.0169808,VALID,20.5927,VALID,96,VALID,1.38457,
2004-11-18, 00:41:00,VALID,917.61,VALID,0,VALID,98.7452,VALID,-0.0169808,VALID,20.6021,VALID,84,VALID,1.19684,
2004-11-18, 00:42:00,VALID,917.62,VALID,0,VALID,98.81,VALID,-0.0169808,VALID,20.622,VALID,109,VALID,0.698219,
2004-11-18, 00:43:00,VALID,917.646,VALID,0,VALID,98.9601,VALID,-0.0339617,VALID,20.6188,VALID,104,VALID,0.90811,
2004-11-18, 00:44:00,VALID,917.648,VALID,0,VALID,99.0949,VALID,0,VALID,20.628,VALID,110,VALID,1.35212,
2004-11-18, 00:45:00,VALID,917.662,VALID,0,VALID,99.2309,VALID,-0.0339617,VALID,20.6153,VALID,130,VALID,0.96766,
2004-11-18, 00:46:00,VALID,917.659,VALID,0,VALID,99.3517,VALID,-0.0169808,VALID,20.6215,VALID,123,VALID,1.33051,
2004-11-18, 00:47:00,VALID,917.636,VALID,0.2,VALID,99.414,VALID,-0.0169808,VALID,20.6446,VALID,125,VALID,1.34394,
2004-11-18, 00:48:00,VALID,917.625,VALID,0,VALID,99.4624,VALID,-0.0169808,VALID,20.6506,VALID,142,VALID,1.35137,
2004-11-18, 00:49:00,VALID,917.608,VALID,0,VALID,99.5158,VALID,-0.0509425,VALID,20.6508,VALID,136,VALID,1.67504,
2004-11-18, 00:50:00,VALID,917.604,VALID,0,VALID,99.5781,VALID,-0.0169808,VALID,20.6439,VALID,136,VALID,1.52053,
2004-11-18, 00:51:00,VALID,917.586,VALID,0,VALID,99.5717,VALID,0,VALID,20.6471,VALID,127,VALID,1.62322,
2004-11-18, 00:52:00,VALID,917.576,VALID,0,VALID,99.5806,VALID,-0.0169808,VALID,20.6573,VALID,137,VALID,1.35283,
2004-11-18, 00:53:00,VALID,917.572,VALID,0,VALID,99.5997,VALID,-0.0339617,VALID,20.667,VALID,154,VALID,1.24941,
2004-11-18, 00:54:00,VALID,917.564,VALID,0,VALID,99.4853,VALID,-0.0339617,VALID,20.66,VALID,137,VALID,1.24809,
2004-11-18, 00:55:00,VALID,917.561,VALID,0,VALID,99.1737,VALID,0,VALID,20.6729,VALID,121,VALID,1.58984,
2004-11-18, 00:56:00,VALID,917.548,VALID,0,VALID,98.9919,VALID,-0.0169808,VALID,20.6829,VALID,124,VALID,1.23765,
2004-11-18, 00:57:00,VALID,917.541,VALID,0,VALID,98.913,VALID,-0.0509425,VALID,20.7085,VALID,122,VALID,1.05636,
2004-11-18, 00:58:00,VALID,917.541,VALID,0,VALID,98.866,VALID,-0.0849042,VALID,20.712,VALID,122,VALID,0.912246,
2004-11-18, 00:59:00,VALID,917.518,VALID,0,VALID,98.8545,VALID,-0.0339617,VALID,20.7085,VALID,110,VALID,1.25999,
2004-11-18, 01:00:00,VALID,917.513,VALID,0,VALID,98.8736,VALID,-0.0509425,VALID,20.7257,VALID,111,VALID,0.641555,
2004-11-18, 01:01:00,VALID,917.484,VALID,0,VALID,98.9181,VALID,-0.0339617,VALID,20.7286,VALID,72,VALID,0.76734,
2004-11-18, 01:02:00,VALID,917.462,VALID,0,VALID,98.6981,VALID,-0.0339617,VALID,20.712,VALID,86,VALID,1.79379,
2004-11-18, 01:03:00,VALID,917.46,VALID,0,VALID,98.365,VALID,-0.0339617,VALID,20.7251,VALID,107,VALID,1.68788,
2004-11-18, 01:04:00,VALID,917.442,VALID,0,VALID,98.1297,VALID,-0.0339617,VALID,20.7346,VALID,100,VALID,1.33012,
2004-11-18, 01:05:00,VALID,917.434,VALID,0,VALID,98.0878,VALID,-0.0679233,VALID,20.7607,VALID,93,VALID,1.29707,
2004-11-18, 01:06:00,VALID,917.418,VALID,0.2,VALID,98.117,VALID,-0.0679233,VALID,20.7574,VALID,91,VALID,1.0279,
2004-11-18, 01:07:00,VALID,917.406,VALID,0,VALID,98.0026,VALID,-0.0169808,VALID,20.758,VALID,98,VALID,1.34517,
2004-11-18, 01:08:00,VALID,917.409,VALID,0,VALID,97.9085,VALID,-0.0169808,VALID,20.7378,VALID,88,VALID,1.11118,
2004-11-18, 01:09:00,VALID,917.405,VALID,0,VALID,97.8945,VALID,-0.0339617,VALID,20.7408,VALID,95,VALID,1.16892,
2004-11-18, 01:10:00,VALID,917.391,VALID,0,VALID,97.9097,VALID,-0.0339617,VALID,20.7475,VALID,86,VALID,0.679506,
2004-11-18, 01:11:00,VALID,917.39,VALID,0,VALID,97.8474,VALID,-0.0339617,VALID,20.7413,VALID,106,VALID,1.16667,
2004-11-18, 01:12:00,VALID,917.394,VALID,0,VALID,97.7813,VALID,-0.0509425,VALID,20.7319,VALID,110,VALID,0.769345,
2004-11-18, 01:13:00,VALID,917.396,VALID,0,VALID,97.9136,VALID,-0.0509425,VALID,20.7383,VALID,76,VALID,0.578506,
2004-11-18, 01:14:00,VALID,917.396,VALID,0,VALID,97.8271,VALID,-0.0169808,VALID,20.7445,VALID,96,VALID,0.799306,
2004-11-18, 01:15:00,VALID,917.39,VALID,0,VALID,97.8131,VALID,-0.0169808,VALID,20.7251,VALID,110,VALID,0.62965,
2004-11-18, 01:16:00,VALID,917.374,VALID,0,VALID,97.7699,VALID,-0.0339617,VALID,20.7184,VALID,79,VALID,0.552257,
2004-11-18, 01:17:00,VALID,917.363,VALID,0,VALID,97.8373,VALID,-0.0339617,VALID,20.7189,VALID,101,VALID,0.480945,
2004-11-18, 01:18:00,VALID,917.356,VALID,0,VALID,97.9504,VALID,-0.0169808,VALID,20.7058,VALID,119,VALID,0.389353,
2004-11-18, 01:19:00,VALID,917.322,VALID,0,VALID,97.8996,VALID,-0.0339617,VALID,20.7025,VALID,129,VALID,0.66875,
2004-11-18, 01:20:00,VALID,917.306,VALID,0,VALID,98.0064,VALID,0,VALID,20.6928,VALID,123,VALID,0.175305,
2004-11-18, 01:21:00,VALID,917.283,VALID,0,VALID,98.0649,VALID,0,VALID,20.6796,VALID,94,VALID,0.583519,
2004-11-18, 01:22:00,VALID,917.259,VALID,0,VALID,97.8462,VALID,-0.0339617,VALID,20.6672,VALID,87,VALID,0.664864,
2004-11-18, 01:23:00,VALID,917.252,VALID,0,VALID,97.7991,VALID,-0.0169808,VALID,20.6608,VALID,69,VALID,0.693496,
2004-11-18, 01:24:00,VALID,917.246,VALID,0,VALID,97.705,VALID,-0.0169808,VALID,20.6511,VALID,100,VALID,0.799924,
2004-11-18, 01:25:00,VALID,917.246,VALID,0,VALID,97.7635,VALID,0,VALID,20.6315,VALID,90,VALID,0.814931,
2004-11-18, 01:26:00,VALID,917.243,VALID,0,VALID,97.8678,VALID,-0.0339617,VALID,20.6322,VALID,81,VALID,0.784375,
2004-11-18, 01:27:00,VALID,917.237,VALID,0,VALID,97.9237,VALID,-0.0339617,VALID,20.6021,VALID,75,VALID,0.449591,
2004-11-18, 01:28:00,VALID,917.216,VALID,0,VALID,97.9555,VALID,0,VALID,20.5892,VALID,102,VALID,0.733232,
2004-11-18, 01:29:00,VALID,917.217,VALID,0,VALID,97.972,VALID,-0.0339617,VALID,20.5795,VALID,148,VALID,0.646528,
2004-11-18, 01:30:00,VALID,917.222,VALID,0,VALID,97.8818,VALID,-0.0169808,VALID,20.5867,VALID,187,VALID,0.958757,
2004-11-18, 01:31:00,VALID,917.224,VALID,0,VALID,97.6249,VALID,-0.0509425,VALID,20.5733,VALID,159,VALID,1.05889,
2004-11-18, 01:32:00,VALID,917.235,VALID,0,VALID,97.7063,VALID,-0.0169808,VALID,20.58,VALID,178,VALID,0.534157,
2004-11-18, 01:33:00,VALID,917.258,VALID,0,VALID,97.677,VALID,-0.0169808,VALID,20.5668,VALID,190,VALID,0.649528,
2004-11-18, 01:34:00,VALID,917.282,VALID,0,VALID,97.6567,VALID,0,VALID,20.5534,VALID,190,VALID,0.213299,
2004-11-18, 01:35:00,VALID,917.309,VALID,0,VALID,97.5422,VALID,-0.0509425,VALID,20.5574,VALID,172,VALID,0.777876,
2004-11-18, 01:36:00,VALID,917.328,VALID,0,VALID,97.5906,VALID,0,VALID,20.5512,VALID,182,VALID,0.264236,
2004-11-18, 01:37:00,VALID,917.368,VALID,0,VALID,97.9415,VALID,0,VALID,20.5507,VALID,194,VALID,0.575694,
2004-11-18, 01:38:00,VALID,917.376,VALID,0,VALID,97.3362,VALID,0,VALID,20.5214,VALID,146,VALID,1.22344,
2004-11-18, 01:39:00,VALID,917.412,VALID,0,VALID,96.9942,VALID,-0.0169808,VALID,20.5122,VALID,103,VALID,0.486328,
2004-11-18, 01:40:00,VALID,917.419,VALID,0,VALID,97.0743,VALID,-0.0169808,VALID,20.5345,VALID,111,VALID,0.239702,
2004-11-18, 01:41:00,VALID,917.434,VALID,0,VALID,97.2828,VALID,0.0169808,VALID,20.5512,VALID,111,VALID,0.016183,
2004-11-18, 01:42:00,VALID,917.436,VALID,0,VALID,97.3299,VALID,-0.0169808,VALID,20.544,VALID,146,VALID,0.561967,
2004-11-18, 01:43:00,VALID,917.425,VALID,0,VALID,97.2625,VALID,-0.0169808,VALID,20.5477,VALID,162,VALID,0.461133,
2004-11-18, 01:44:00,VALID,917.426,VALID,0,VALID,97.2193,VALID,-0.0169808,VALID,20.5437,VALID,151,VALID,0.536644,
2004-11-18, 01:45:00,VALID,917.415,VALID,0,VALID,97.1506,VALID,-0.0169808,VALID,20.5504,VALID,148,VALID,0.359933,
2004-11-18, 01:46:00,VALID,917.399,VALID,0,VALID,96.9891,VALID,-0.0339617,VALID,20.538,VALID,125,VALID,0.400073,
2004-11-18, 01:47:00,VALID,917.395,VALID,0,VALID,97.0425,VALID,-0.0169808,VALID,20.5251,VALID,139,VALID,0.400521,
2004-11-18, 01:48:00,VALID,917.369,VALID,0,VALID,96.9319,VALID,-0.0509425,VALID,20.5119,VALID,155,VALID,0.617188,
2004-11-18, 01:49:00,VALID,917.372,VALID,0,VALID,96.4512,VALID,-0.0169808,VALID,20.4896,VALID,106,VALID,0.738186,
2004-11-18, 01:50:00,VALID,917.38,VALID,0,VALID,96.4627,VALID,-0.0169808,VALID,20.513,VALID,112,VALID,0.22218,
2004-11-18, 01:51:00,VALID,917.385,VALID,0,VALID,96.53,VALID,-0.0339617,VALID,20.5025,VALID,112,VALID,0.395833,
2004-11-18, 01:52:00,VALID,917.382,VALID,0,VALID,96.4003,VALID,-0.0169808,VALID,20.4963,VALID,152,VALID,0.671528,
2004-11-18, 01:53:00,VALID,917.369,VALID,0,VALID,96.4932,VALID,-0.0169808,VALID,20.4866,VALID,163,VALID,0.975142,
2004-11-18, 01:54:00,VALID,917.373,VALID,0,VALID,96.4448,VALID,-0.0509425,VALID,20.4866,VALID,155,VALID,0.680432,
2004-11-18, 01:55:00,VALID,917.385,VALID,0,VALID,96.5847,VALID,0,VALID,20.4767,VALID,151,VALID,0.278088,
2004-11-18, 01:56:00,VALID,917.365,VALID,0,VALID,96.9001,VALID,-0.0509425,VALID,20.4734,VALID,151,VALID,0.176525,
2004-11-18, 01:57:00,VALID,917.355,VALID,0,VALID,96.9904,VALID,-0.0169808,VALID,20.4839,VALID,202,VALID,0.433594,
2004-11-18, 01:58:00,VALID,917.353,VALID,0,VALID,96.8492,VALID,-0.0339617,VALID,20.4608,VALID,196,VALID,0.513765,
2004-11-18, 01:59:00,VALID,917.349,VALID,0,VALID,96.703,VALID,-0.0339617,VALID,20.4438,VALID,175,VALID,0.476563,
2004-11-18, 02:00:00,VALID,917.352,VALID,0,VALID,96.6648,VALID,-0.0339617,VALID,20.4476,VALID,145,VALID,0.286776,
2004-11-18, 02:01:00,VALID,917.346,VALID,0,VALID,96.6089,VALID,-0.0169808,VALID,20.4438,VALID,113,VALID,0.272879,
2004-11-18, 02:02:00,VALID,917.342,VALID,0,VALID,97.162,VALID,-0.0169808,VALID,20.4565,VALID,113,VALID,0.206209,
2004-11-18, 02:03:00,VALID,917.323,VALID,0,VALID,96.8238,VALID,0.0339617,VALID,20.4336,VALID,113,VALID,0.000190549,
2004-11-18, 02:04:00,VALID,917.319,VALID,0,VALID,97.204,VALID,0.0169808,VALID,20.4466,VALID,357,VALID,0.567042,
2004-11-18, 02:05:00,VALID,917.3,VALID,0,VALID,97.6719,VALID,0,VALID,20.4565,VALID,355,VALID,0.793241,
2004-11-18, 02:06:00,VALID,917.286,VALID,0,VALID,97.4761,VALID,0.0339617,VALID,20.4075,VALID,14,VALID,1.00176,
2004-11-18, 02:07:00,VALID,917.27,VALID,0,VALID,97.2549,VALID,0.0169808,VALID,20.4013,VALID,8,VALID,0.562318,
2004-11-18, 02:08:00,VALID,917.26,VALID,0,VALID,97.555,VALID,0,VALID,20.4051,VALID,9,VALID,0.366122,
2004-11-18, 02:09:00,VALID,917.233,VALID,0,VALID,97.6948,VALID,0,VALID,20.3981,VALID,9,VALID,0.305596,
2004-11-18, 02:10:00,VALID,917.225,VALID,0,VALID,97.8322,VALID,0,VALID,20.3981,VALID,9,VALID,0.291726,
2004-11-18, 02:11:00,VALID,917.197,VALID,0,VALID,97.8538,VALID,0,VALID,20.4016,VALID,9,VALID,0.311047,
2004-11-18, 02:12:00,VALID,917.18,VALID,0.2,VALID,97.9542,VALID,0,VALID,20.3852,VALID,9,VALID,0.509115,
2004-11-18, 02:13:00,VALID,917.161,VALID,0,VALID,97.925,VALID,0,VALID,20.3596,VALID,9,VALID,0.614702,
2004-11-18, 02:14:00,VALID,917.135,VALID,0,VALID,97.5982,VALID,0.0169808,VALID,20.334,VALID,2,VALID,0.896949,
2004-11-18, 02:15:00,VALID,917.129,VALID,0,VALID,97.6147,VALID,0,VALID,20.2977,VALID,345,VALID,0.626817,
2004-11-18, 02:16:00,VALID,917.125,VALID,0.2,VALID,97.6071,VALID,0,VALID,20.2821,VALID,313,VALID,0.5625,
2004-11-18, 02:17:00,VALID,917.118,VALID,0,VALID,97.7457,VALID,0.0169808,VALID,20.256,VALID,304,VALID,0.527798,
2004-11-18, 02:18:00,VALID,917.119,VALID,0,VALID,98.0344,VALID,-0.0169808,VALID,20.2535,VALID,304,VALID,0.326736,
2004-11-18, 02:19:00,VALID,917.122,VALID,0,VALID,98.4247,VALID,0,VALID,20.2363,VALID,304,VALID,0.0345703,
2004-11-18, 02:20:00,VALID,917.106,VALID,0,VALID,98.8533,VALID,0.0169808,VALID,20.2428,VALID,304,VALID,0.00109012,
2004-11-18, 02:21:00,VALID,917.1,VALID,0.2,VALID,99.1902,VALID,0,VALID,20.2597,VALID,286,VALID,0.335366,
2004-11-18, 02:22:00,VALID,917.088,VALID,0,VALID,99.4471,VALID,0,VALID,20.2622,VALID,138,VALID,0.516369,
2004-11-18, 02:23:00,VALID,917.057,VALID,0,VALID,99.5972,VALID,0.0339617,VALID,20.2724,VALID,163,VALID,0.622142,
2004-11-18, 02:24:00,VALID,917.055,VALID,0,VALID,99.6124,VALID,0,VALID,20.2428,VALID,180,VALID,0.706759,
2004-11-18, 02:25:00,VALID,917.04,VALID,0,VALID,99.7307,VALID,0.0169808,VALID,20.2438,VALID,211,VALID,0.301448,
2004-11-18, 02:26:00,VALID,917.034,VALID,0.2,VALID,99.8146,VALID,0.0169808,VALID,20.2205,VALID,194,VALID,0.22904,
2004-11-18, 02:27:00,VALID,917.044,VALID,0,VALID,99.8845,VALID,0,VALID,20.2304,VALID,194,VALID,0.0846657,
2004-11-18, 02:28:00,VALID,917.046,VALID,0,VALID,99.9227,VALID,0,VALID,20.217,VALID,175,VALID,0.579013,
2004-11-18, 02:29:00,VALID,917.045,VALID,0.2,VALID,99.9545,VALID,-0.0169808,VALID,20.2108,VALID,155,VALID,0.502232,
2004-11-18, 02:30:00,VALID,917.039,VALID,0,VALID,99.9481,VALID,0,VALID,20.2048,VALID,149,VALID,0.608803,
2004-11-18, 02:31:00,VALID,917.049,VALID,0,VALID,99.9074,VALID,0,VALID,20.179,VALID,152,VALID,0.744234,
2004-11-18, 02:32:00,VALID,917.05,VALID,0.2,VALID,99.8718,VALID,0.0339617,VALID,20.1432,VALID,137,VALID,1.06436,
2004-11-18, 02:33:00,VALID,917.055,VALID,0,VALID,99.9023,VALID,0.0169808,VALID,20.1173,VALID,153,VALID,1.15978,
2004-11-18, 02:34:00,VALID,917.066,VALID,0.2,VALID,99.9316,VALID,0,VALID,20.0977,VALID,153,VALID,0.947443,
2004-11-18, 02:35:00,VALID,917.065,VALID,0,VALID,99.9822,VALID,0.0339617,VALID,20.0754,VALID,156,VALID,1.20815,
2004-11-18, 02:36:00,VALID,917.067,VALID,0.2,VALID,100,VALID,0,VALID,20.0426,VALID,155,VALID,0.792436,
2004-11-18, 02:37:00,VALID,917.076,VALID,0.2,VALID,100,VALID,-0.0339617,VALID,20.0237,VALID,151,VALID,1.00273,
2004-11-18, 02:38:00,VALID,917.076,VALID,0,VALID,100,VALID,0,VALID,20.014,VALID,146,VALID,1.09175,
2004-11-18, 02:39:00,VALID,917.069,VALID,0.2,VALID,100,VALID,0.0339617,VALID,20.0011,VALID,145,VALID,1.09337,
2004-11-18, 02:40:00,VALID,917.037,VALID,0,VALID,100,VALID,0,VALID,19.9852,VALID,151,VALID,1.09819,
2004-11-18, 02:41:00,VALID,917.02,VALID,0,VALID,100,VALID,0.0169808,VALID,19.9852,VALID,165,VALID,0.820313,
2004-11-18, 02:42:00,VALID,917.003,VALID,0.2,VALID,100,VALID,0,VALID,19.9817,VALID,156,VALID,0.76835,
2004-11-18, 02:43:00,VALID,916.954,VALID,0,VALID,100,VALID,-0.0169808,VALID,19.9755,VALID,148,VALID,0.932478,
2004-11-18, 02:44:00,VALID,916.947,VALID,0.2,VALID,100,VALID,0.0169808,VALID,19.9752,VALID,142,VALID,0.669207,
2004-11-18, 02:45:00,VALID,916.922,VALID,0,VALID,100,VALID,0,VALID,19.9787,VALID,136,VALID,0.735828,
2004-11-18, 02:46:00,VALID,916.908,VALID,0,VALID,100,VALID,-0.0509425,VALID,19.9919,VALID,146,VALID,0.610764,
2004-11-18, 02:47:00,VALID,916.904,VALID,0.2,VALID,100,VALID,-0.101885,VALID,20.0227,VALID,163,VALID,0.682292,
2004-11-18, 02:48:00,VALID,916.915,VALID,0,VALID,100,VALID,-0.101885,VALID,20.0351,VALID,145,VALID,0.635653,
2004-11-18, 02:49:00,VALID,916.914,VALID,0.2,VALID,100,VALID,-0.101885,VALID,20.0384,VALID,132,VALID,0.865589,
2004-11-18, 02:50:00,VALID,916.927,VALID,0,VALID,100,VALID,-0.0849042,VALID,20.0543,VALID,128,VALID,0.902926,
2004-11-18, 02:51:00,VALID,916.931,VALID,0,VALID,100,VALID,-0.101885,VALID,20.0804,VALID,126,VALID,0.532885,
2004-11-18, 02:52:00,VALID,916.917,VALID,0,VALID,100,VALID,-0.101885,VALID,20.0766,VALID,126,VALID,0.0455729,
2004-11-18, 02:53:00,VALID,916.902,VALID,0,VALID,100,VALID,-0.101885,VALID,20.0968,VALID,126,VALID,0.00558036,
2004-11-18, 02:54:00,VALID,916.88,VALID,0,VALID,100,VALID,-0.101885,VALID,20.1062,VALID,126,VALID,0.00093006,
2004-11-18, 02:55:00,VALID,916.871,VALID,0.2,VALID,100,VALID,-0.118866,VALID,20.1,VALID,126,VALID,0.191778,
2004-11-18, 02:56:00,VALID,916.856,VALID,0,VALID,100,VALID,-0.118866,VALID,20.0935,VALID,126,VALID,0.348837,
2004-11-18, 02:57:00,VALID,916.852,VALID,0,VALID,100,VALID,-0.0849042,VALID,20.0672,VALID,126,VALID,0.454901,
2004-11-18, 02:58:00,VALID,916.85,VALID,0,VALID,100,VALID,-0.101885,VALID,20.0615,VALID,138,VALID,0.770312,
2004-11-18, 02:59:00,VALID,916.834,VALID,0,VALID,100,VALID,-0.101885,VALID,20.0451,VALID,131,VALID,0.36814,
2004-11-18, 03:00:00,VALID,916.813,VALID,0,VALID,100,VALID,-0.101885,VALID,20.0443,VALID,106,VALID,0.496838,
2004-11-18, 03:01:00,VALID,916.788,VALID,0.2,VALID,100,VALID,-0.0509425,VALID,20.0476,VALID,76,VALID,0.388263,
2004-11-18, 03:02:00,VALID,916.771,VALID,0,VALID,100,VALID,0.101885,VALID,20.0167,VALID,76,VALID,0.29184,
2004-11-18, 03:03:00,VALID,916.742,VALID,0,VALID,100,VALID,0.0849042,VALID,20.007,VALID,77,VALID,0.255087,
2004-11-18, 03:04:00,VALID,916.74,VALID,0,VALID,100,VALID,0.0849042,VALID,19.9847,VALID,94,VALID,0.622332,
2004-11-18, 03:05:00,VALID,916.739,VALID,0,VALID,100,VALID,0.101885,VALID,19.972,VALID,90,VALID,0.327567,
2004-11-18, 03:06:00,VALID,916.734,VALID,0,VALID,100,VALID,0.0849042,VALID,19.9752,VALID,78,VALID,0.600446,
2004-11-18, 03:07:00,VALID,916.728,VALID,0,VALID,100,VALID,0.0679233,VALID,19.9653,VALID,79,VALID,0.416066,
2004-11-18, 03:08:00,VALID,916.727,VALID,0,VALID,100,VALID,0.0849042,VALID,19.9524,VALID,106,VALID,0.94707,
2004-11-18, 03:09:00,VALID,916.696,VALID,0,VALID,100,VALID,0.101885,VALID,19.9521,VALID,118,VALID,0.992578,
2004-11-18, 03:10:00,VALID,916.68,VALID,0,VALID,100,VALID,0.101885,VALID,19.9591,VALID,136,VALID,0.869318,
2004-11-18, 03:11:00,VALID,916.667,VALID,0.2,VALID,100,VALID,0.0509425,VALID,19.9556,VALID,140,VALID,0.888542,
2004-11-18, 03:12:00,VALID,916.651,VALID,0,VALID,100,VALID,0.0509425,VALID,19.9752,VALID,141,VALID,1.131,
2004-11-18, 03:13:00,VALID,916.651,VALID,0,VALID,100,VALID,0.0509425,VALID,19.9554,VALID,114,VALID,0.759084,
2004-11-18, 03:14:00,VALID,916.628,VALID,0,VALID,100,VALID,0.0679233,VALID,19.9688,VALID,132,VALID,0.663681,
2004-11-18, 03:15:00,VALID,916.593,VALID,0,VALID,100,VALID,0.0509425,VALID,19.972,VALID,151,VALID,0.624023,
2004-11-18, 03:16:00,VALID,916.57,VALID,0,VALID,100,VALID,-0.0169808,VALID,19.9661,VALID,164,VALID,0.421317,
2004-11-18, 03:17:00,VALID,916.565,VALID,0,VALID,100,VALID,0,VALID,19.9703,VALID,148,VALID,0.834666,
2004-11-18, 03:18:00,VALID,916.564,VALID,0,VALID,100,VALID,-0.0339617,VALID,19.9539,VALID,166,VALID,0.511009,
2004-11-18, 03:19:00,VALID,916.568,VALID,0,VALID,100,VALID,-0.0169808,VALID,19.9606,VALID,133,VALID,0.584121,
2004-11-18, 03:20:00,VALID,916.57,VALID,0,VALID,100,VALID,-0.0509425,VALID,19.9407,VALID,106,VALID,0.244531,
2004-11-18, 03:21:00,VALID,916.58,VALID,0,VALID,100,VALID,-0.0339617,VALID,19.941,VALID,115,VALID,0.403706,
2004-11-18, 03:22:00,VALID,916.582,VALID,0,VALID,100,VALID,-0.0169808,VALID,19.9509,VALID,125,VALID,0.698047,
2004-11-18, 03:23:00,VALID,916.571,VALID,0,VALID,100,VALID,-0.0339617,VALID,19.938,VALID,94,VALID,0.63457,
2004-11-18, 03:24:00,VALID,916.555,VALID,0,VALID,100,VALID,-0.0169808,VALID,19.9348,VALID,103,VALID,0.331287,
2004-11-18, 03:25:00,VALID,916.544,VALID,0,VALID,100,VALID,-0.0339617,VALID,19.9246,VALID,136,VALID,0.762277,
2004-11-18, 03:26:00,VALID,916.527,VALID,0,VALID,100,VALID,-0.0169808,VALID,19.9213,VALID,166,VALID,0.65189,
2004-11-18, 03:27:00,VALID,916.502,VALID,0,VALID,100,VALID,-0.0339617,VALID,19.9218,VALID,168,VALID,0.791016,
2004-11-18, 03:28:00,VALID,916.489,VALID,0,VALID,100,VALID,-0.0169808,VALID,19.9151,VALID,150,VALID,0.940549,
2004-11-18, 03:29:00,VALID,916.482,VALID,0,VALID,100,VALID,-0.0509425,VALID,19.9124,VALID,162,VALID,1.10212,
2004-11-18, 03:30:00,VALID,916.463,VALID,0,VALID,100,VALID,-0.0169808,VALID,19.896,VALID,149,VALID,1.04227,
2004-11-18, 03:31:00,VALID,916.45,VALID,0,VALID,100,VALID,0,VALID,19.896,VALID,153,VALID,0.975497,
2004-11-18, 03:32:00,VALID,916.449,VALID,0,VALID,100,VALID,-0.0509425,VALID,19.8866,VALID,167,VALID,0.384448,
2004-11-18, 03:33:00,VALID,916.426,VALID,0,VALID,100,VALID,-0.0169808,VALID,19.896,VALID,163,VALID,0.397879,
2004-11-18, 03:34:00,VALID,916.433,VALID,0,VALID,100,VALID,-0.0169808,VALID,19.896,VALID,173,VALID,0.462754,